Back to catalog

STARLINK-11602

AliveCommunicationsVLEO
NORAD 63183·PAYLOAD·🇺🇸 United States

Launched Mar 13, 2025 from Cape Canaveral Space Force Station

Loading…

Next Passes (next 24 hours)

TLE

FreshSource: CelesTrak SupGP

Epoch: Sep 14, 2026, 21:13 UTC

1 63183C 25048A   26257.88451389  .00006727  00000+0  52269-4 0  2574
2 63183  43.0004 259.8019 0001704 253.7612  88.8903 15.70824405    19

Track STARLINK-11602 in real time with AllMySat

Download on the App Store